Погода в Жаруве

Польша     50°56′29″N   16°29′42″E
темп.,
°C
ветер,
м/с
пор.,
м/с
влажн.,
%
обл.,
%
осадки,
мм/ч
давл.,
гПа
погр.,
м
28 февраля, вс
вс2801:00+3з4882100 0.1 1038300
04:00+2зсз478576 0.0 1037298
07:00+2зсз368588 0.0 1037204
10:00+5зсз476920 0.0 1037467
13:00+8зсз575811 0.0 1035674
16:00+8зсз69650 0.0 1033735
19:00+5зсз48850 0.0 1034212
22:00+4зсз48920 0.0 1035178
1 марта, пн
пн101:00+3зсз35930 0.0 1036109
04:00+2сз22950 0.0 103532
07:00+1зсз22944 0.0 103627
10:00+6зсз11760 0.0 1036331
13:00+10с11600 0.0 1036571
16:00+10с11590 0.0 1034533
19:00+6ю11740 0.0 103522
22:00+5юз12780 0.0 103522
2 марта, вт
вт201:00+4з12810 0.0 103522
04:00+3зюз12810 0.0 103422
07:00+3зюз11790 0.0 103422
10:00+9з12570 0.0 1034264
13:00+12ссз23510 0.0 1034637
16:00+12сз22530 0.0 1032577
19:00+7зсз11680 0.0 103322
22:00+6зюз11740 0.0 103322
3 марта, ср
ср301:00+5зюз01810 0.0 103322
04:00+4юз11820 0.0 103222
07:00+3ююз11810 0.0 103222
10:00+9юз11600 0.0 1031248
13:00+13св114711 0.0 1029634
16:00+13св114814 0.0 1027461
19:00+8ю12667 0.0 102622
22:00+6ююз34755 0.0 102653
4 марта, чт
чт401:00+5юз337628 0.0 102346
04:00+5юз347555 0.0 102168
07:00+5юз357772 0.0 101990
10:00+10юз356393 0.0 1018290
13:00+12зюз455893 0.0 10161017
16:00+9зсз4881100 0.3 1014469
19:00+8з51180100 0.5 1013892
22:00+7зсз61183100 0.3 1013735